When you browse on this site, cookies collect data to enhance your experience and personalize the content and advertising you see.
Visit our Privacy Policy to learn more. By continuing to use the site, you agree to this use of cookies and data.
  • In Hungary
  • List of Countries
  • For 7 days
  • Water Temperature
  • Weather Map
  • News
  • Weather Widgets
  • user-avatar
    Login

    Hourly Weather Albufeira

    Today, 18 November, Monday

    Time Temperature Precipitation Wind Pressure Humidity
    00:00 +12°C° 0.1 mm 7 mps 756 mmHg 85%
    01:00 +11°C° 0.1 mm 7 mps 756 mmHg 85%
    02:00 +9°C° 0.1 mm 7 mps 756 mmHg 85%
    03:00 +9°C° 0 mm 6 mps 756 mmHg 85%
    04:00 +9°C° 0 mm 6 mps 756 mmHg 85%
    05:00 +8°C° 0 mm 6 mps 757 mmHg 85%
    06:00 +9°C° 0 mm 6 mps 757 mmHg 81%
    07:00 +10°C° 0 mm 6 mps 758 mmHg 77%
    08:00 +11°C° 0 mm 6 mps 758 mmHg 73%
    09:00 +14°C° 0 mm 6 mps 758 mmHg 67%
    10:00 +15°C° 0 mm 6 mps 758 mmHg 60%
    11:00 +16°C° 0 mm 6 mps 758 mmHg 54%
    12:00 +16°C° 0 mm 6 mps 758 mmHg 51%
    13:00 +16°C° 0 mm 6 mps 757 mmHg 49%
    14:00 +16°C° 0 mm 5 mps 757 mmHg 46%
    15:00 +15°C° 0 mm 5 mps 757 mmHg 52%
    16:00 +13°C° 0 mm 4 mps 757 mmHg 58%
    17:00 +11°C° 0 mm 4 mps 757 mmHg 64%
    18:00 +11°C° 0 mm 4 mps 758 mmHg 66%
    19:00 +10°C° 0 mm 4 mps 758 mmHg 68%
    20:00 +10°C° 0 mm 3 mps 759 mmHg 70%
    21:00 +10°C° 0 mm 3 mps 759 mmHg 73%
    22:00 +9°C° 0 mm 3 mps 758 mmHg 76%
    23:00 +9°C° 0 mm 3 mps 758 mmHg 78%

    Tomorrow, 19 November, Tuesday

    Time Temperature Precipitation Wind Pressure Humidity
    00:00 +9°C° 0 mm 3 mps 758 mmHg 79%
    01:00 +9°C° 0 mm 2 mps 758 mmHg 79%
    02:00 +9°C° 0 mm 2 mps 757 mmHg 79%
    03:00 +9°C° 0 mm 2 mps 757 mmHg 78%
    04:00 +8°C° 0 mm 2 mps 757 mmHg 76%
    05:00 +8°C° 0 mm 3 mps 757 mmHg 75%
    06:00 +9°C° 0 mm 2 mps 758 mmHg 72%
    07:00 +10°C° 0 mm 2 mps 758 mmHg 69%
    08:00 +12°C° 0 mm 2 mps 758 mmHg 67%
    09:00 +13°C° 0 mm 1 mps 758 mmHg 66%
    10:00 +13°C° 0 mm 1 mps 758 mmHg 65%
    11:00 +13°C° 0 mm 1 mps 757 mmHg 64%
    12:00 +14°C° 0 mm 1 mps 757 mmHg 62%
    13:00 +14°C° 0 mm 1 mps 756 mmHg 61%
    14:00 +15°C° 0 mm 1 mps 756 mmHg 59%
    15:00 +14°C° 0 mm 1 mps 756 mmHg 65%
    16:00 +13°C° 0 mm 1 mps 756 mmHg 71%
    17:00 +12°C° 0 mm 1 mps 756 mmHg 77%
    18:00 +12°C° 0 mm 2 mps 756 mmHg 79%
    19:00 +12°C° 0 mm 2 mps 756 mmHg 81%
    20:00 +10°C° 0 mm 2 mps 756 mmHg 83%
    21:00 +12°C° 0 mm 2 mps 755 mmHg 84%
    22:00 +11°C° 0 mm 3 mps 755 mmHg 84%
    23:00 +12°C° 0 mm 4 mps 754 mmHg 84%

    Day after tomorrow, 20 November, Wednesday

    Time Temperature Precipitation Wind Pressure Humidity
    00:00 +12°C° 0.2 mm 4 mps 754 mmHg 86%
    01:00 +13°C° 0.2 mm 5 mps 754 mmHg 89%
    02:00 +13°C° 0.2 mm 5 mps 754 mmHg 91%
    03:00 +13°C° 5 mm 5 mps 753 mmHg 93%
    04:00 +13°C° 5 mm 5 mps 753 mmHg 95%
    05:00 +13°C° 5 mm 5 mps 752 mmHg 97%
    06:00 +13°C° 0.8 mm 5 mps 753 mmHg 93%
    07:00 +13°C° 0.8 mm 5 mps 753 mmHg 90%
    08:00 +13°C° 0.8 mm 5 mps 753 mmHg 86%
    09:00 +14°C° 0 mm 5 mps 753 mmHg 79%
    10:00 +14°C° 0 mm 5 mps 753 mmHg 73%
    11:00 +15°C° 0 mm 5 mps 753 mmHg 66%
    12:00 +15°C° 0 mm 5 mps 753 mmHg 65%
    13:00 +16°C° 0 mm 5 mps 753 mmHg 63%
    14:00 +16°C° 0 mm 5 mps 753 mmHg 61%
    15:00 +15°C° 0 mm 4 mps 753 mmHg 67%
    16:00 +14°C° 0 mm 4 mps 753 mmHg 73%
    17:00 +12°C° 0 mm 3 mps 753 mmHg 79%
    18:00 +12°C° 0.2 mm 3 mps 753 mmHg 83%
    19:00 +12°C° 0.2 mm 3 mps 754 mmHg 86%
    20:00 +12°C° 0.2 mm 4 mps 754 mmHg 89%
    21:00 +12°C° 0.3 mm 3 mps 754 mmHg 90%
    22:00 +12°C° 0.3 mm 3 mps 754 mmHg 92%
    23:00 +12°C° 0.3 mm 3 mps 754 mmHg 93%

    21 November, Thursday

    Time Temperature Precipitation Wind Pressure Humidity
    00:00 +12°C° 0.2 mm 3 mps 754 mmHg 93%
    01:00 +12°C° 0.2 mm 3 mps 753 mmHg 93%
    02:00 +12°C° 0.2 mm 3 mps 753 mmHg 93%
    03:00 +13°C° 0.1 mm 2 mps 753 mmHg 92%
    04:00 +13°C° 0.1 mm 2 mps 753 mmHg 92%
    05:00 +12°C° 0.1 mm 2 mps 753 mmHg 92%
    06:00 +13°C° 0.1 mm 1 mps 753 mmHg 89%
    07:00 +14°C° 0.1 mm 1 mps 753 mmHg 87%
    08:00 +15°C° 0.1 mm 1 mps 754 mmHg 84%
    09:00 +16°C° 0.1 mm 1 mps 753 mmHg 79%
    10:00 +17°C° 0.1 mm 2 mps 753 mmHg 74%
    11:00 +18°C° 0.1 mm 3 mps 753 mmHg 70%
    12:00 +17°C° 0.1 mm 3 mps 753 mmHg 75%
    13:00 +17°C° 0.1 mm 3 mps 753 mmHg 80%
    14:00 +16°C° 0.1 mm 3 mps 752 mmHg 85%
    15:00 +14°C° 0.3 mm 3 mps 752 mmHg 88%
    16:00 +14°C° 0.3 mm 3 mps 752 mmHg 90%
    17:00 +14°C° 0.3 mm 3 mps 752 mmHg 92%
    18:00 +14°C° 0.4 mm 4 mps 752 mmHg 94%
    19:00 +14°C° 0.4 mm 5 mps 752 mmHg 95%
    20:00 +14°C° 0.4 mm 6 mps 753 mmHg 96%
    21:00 +15°C° 0.4 mm 6 mps 753 mmHg 95%
    22:00 +15°C° 0.4 mm 6 mps 753 mmHg 94%
    23:00 +15°C° 0.4 mm 7 mps 753 mmHg 93%

    22 November, Friday

    Time Temperature Precipitation Wind Pressure Humidity
    00:00 +15°C° 0.4 mm 7 mps 752 mmHg 93%
    01:00 +15°C° 0.4 mm 7 mps 752 mmHg 93%
    02:00 +16°C° 0.4 mm 7 mps 752 mmHg 93%
    03:00 +16°C° 0.9 mm 7 mps 751 mmHg 94%
    04:00 +15°C° 0.9 mm 7 mps 751 mmHg 94%
    05:00 +15°C° 0.9 mm 7 mps 751 mmHg 95%
    06:00 +16°C° 0.3 mm 7 mps 751 mmHg 94%
    07:00 +16°C° 0.3 mm 7 mps 751 mmHg 93%
    08:00 +17°C° 0.3 mm 7 mps 751 mmHg 92%
    09:00 +17°C° 0.3 mm 7 mps 751 mmHg 90%
    10:00 +18°C° 0.3 mm 7 mps 751 mmHg 89%
    11:00 +18°C° 0.3 mm 7 mps 752 mmHg 87%
    12:00 +18°C° 0.1 mm 7 mps 751 mmHg 83%
    13:00 +19°C° 0.1 mm 6 mps 751 mmHg 80%
    14:00 +20°C° 0.1 mm 6 mps 751 mmHg 76%
    15:00 +19°C° 0 mm 5 mps 751 mmHg 83%
    16:00 +16°C° 0 mm 5 mps 752 mmHg 89%
    17:00 +15°C° 0 mm 5 mps 752 mmHg 95%
    18:00 +15°C° 0 mm 5 mps 752 mmHg 95%
    19:00 +15°C° 0 mm 4 mps 753 mmHg 94%
    20:00 +15°C° 0 mm 4 mps 753 mmHg 93%
    21:00 +16°C° 0.1 mm 5 mps 753 mmHg 94%
    22:00 +16°C° 0.1 mm 6 mps 753 mmHg 95%
    23:00 +16°C° 0.1 mm 7 mps 753 mmHg 95%

    23 November, Saturday

    Time Temperature Precipitation Wind Pressure Humidity
    00:00 +16°C° 0.2 mm 6 mps 753 mmHg 95%
    01:00 +17°C° 0.2 mm 6 mps 753 mmHg 95%
    02:00 +17°C° 0.2 mm 6 mps 753 mmHg 95%
    03:00 +16°C° 0 mm 5 mps 754 mmHg 94%
    04:00 +17°C° 0 mm 4 mps 754 mmHg 94%
    05:00 +16°C° 0 mm 3 mps 754 mmHg 94%
    06:00 +16°C° 0 mm 3 mps 755 mmHg 91%
    07:00 +17°C° 0 mm 3 mps 756 mmHg 88%
    08:00 +17°C° 0 mm 3 mps 756 mmHg 86%
    09:00 +18°C° 0 mm 3 mps 756 mmHg 80%
    10:00 +19°C° 0 mm 3 mps 757 mmHg 75%
    11:00 +19°C° 0 mm 3 mps 757 mmHg 70%
    12:00 +20°C° 0 mm 3 mps 757 mmHg 68%
    13:00 +20°C° 0 mm 3 mps 757 mmHg 67%
    14:00 +20°C° 0 mm 3 mps 756 mmHg 65%
    15:00 +18°C° 0 mm 3 mps 757 mmHg 72%
    16:00 +17°C° 0 mm 3 mps 757 mmHg 78%
    17:00 +14°C° 0 mm 3 mps 758 mmHg 84%
    18:00 +14°C° 0 mm 3 mps 758 mmHg 86%
    19:00 +13°C° 0 mm 3 mps 759 mmHg 88%
    20:00 +14°C° 0 mm 2 mps 759 mmHg 91%
    21:00 +14°C° 0 mm 2 mps 759 mmHg 90%
    22:00 +13°C° 0 mm 1 mps 759 mmHg 90%
    23:00 +13°C° 0 mm 1 mps 759 mmHg 89%
    Show more